Zurück zum Katalog

STARLINK-11707

AktivKommunikationVLEO
NORAD 64328·PAYLOAD·🇺🇸 United States

Gestartet Jun 10, 2025 von Cape Canaveral Space Force Station

Loading…

Nächste Überflüge (nächste 24 Stunden)

TLE

AktuellSource: CelesTrak SupGP

Epoche: Sep 15, 2026, 03:12 UTC

1 64328C 25124M   26258.13381944  .00013015  00000+0  10113-3 0  2589
2 64328  43.0000 327.2213 0001544 249.8420 338.0745 15.70821354    12

Verfolge STARLINK-11707 in Echtzeit mit AllMySat

Download on the App Store